User: anonymous   Login
Location: Unspecified
(0.0000°N, 0.0000°E)
Time: 20:40:04
(UTC+00:00)
Language:

Transit 2A - Orbit

View from above orbital plane
View from above orbital plane
View from above satellite
View from above satellite

Ground track
Ground track

The orbit data is extracted from the following two-line orbital elements,

1 00045U 60007A   18114.54831716 -.00000009  00000-0  24744-4 0  9997
2 00045  66.6936 289.1789 0254083 168.6173 192.0828 14.33595461 10197
Epoch (UTC): 24 April 2018 13:09:34
Eccentricity: 0.0254083
inclination: 66.6936°
perigee height: 598 km
apogee height: 961 km
right ascension of ascending node: 289.1789°
argument of perigee: 168.6173°
revolutions per day: 14.33595461
mean anomaly at epoch: 192.0828°
orbit number at epoch: 1019

The dashed part of the orbit path shows where the satellite is in the earth's shadow,  

DLR